COSMOS 1275 DEB, 17627

Orbit data source: Space-Track

COSMOS 1275 DEB, 17627 is space debris in LEO originally from a launch on Thu, 04 Jun 1981 UTC launched from the Plesetsk Missile And Space Complex (PKMTR). Debris objects in space refer to the collection of defunct objects orbiting the Earth. Examples of debris include non-operational satellites, rocket bodies, and fragments generated from explosions, collisions, or faulty payload assembly.

Loading next visibility...
Identifier
17627, 1981-053KW
Orbit
LEO
Country
Flag of CISCIS
Related business
Manufacturer
Unknown
Mission
Spacecraft
Bus & Motor
Unknown
Mass
Unknown
Launch date (UTC)
1981-06-04 (44 years ago)
Launch vehicle
Unknown
Launch site
Plesetsk Missile And Space Complex (PKMTR)
Object type
Payload
Rocket body
Debris
Shape & HBR
Unknown shape, 0.1 m
Radar Cross Section
Small (<0.1 m²)

Expand to show TLE details & history
Last TLE update: 15 hours ago

TLE from 15 hours ago
0 COSMOS 1275 DEB
1 17627U 81053KW  25286.70636508  .00001828  00000-0  12178-2 0  9998
2 17627  82.9266 186.3608 0049183  62.2929 298.3218 14.00075000 51124
Epoch: 2025-10-13T16:57Z
TLE epoch observation values (Epoch: 2025-10-13T16:57:09.942Z)
Latitude
-0.00006°
Longitude
-90.43593°
Altitude
879.636 km
Speed
7.421 km/s
True Right ascension
12h 25m 26s
True Declination
0° 00' 00"
Sunlit
Object was in daylight at epoch
Visualization orbit readout
Latitude
Unknown
Longitude
Unknown
Altitude
Unknown
Speed
Unknown
Apparent Right ascension
Unknown
Apparent Declination
Unknown
Sunlit
N/A
Visualization observer readout
Local Sidereal Time
02:35:19
Azimuth
Unknown
Elevation
Unknown
Doppler factor
Unknown
Orbital elements
Apogee altitude
926.4 km
Perigee altitude
854.9 km
Semi-major axis
7,268.787 km
Eccentricity
0.00492
Inclination
82.9266°
RAAN
186.3608°
Arg. of periapsis
62.2929°
True anomaly
297.82422°
Mean anomaly
298.3218°
Eccentric anomaly
298.07316°
Mean motion
3.50228 °/min
Orbital period
102.79 mins
BSTAR
0.0012178
Loading maneuver chart data...
Computing Atmospheric mass density...
Loading historical data...
Loading historical data...
Loading historical data...
Loading historical data...
Loading historical data...
Loading historical data...
Loading historical data...

Documentation

Showing up to 5 results
|